Location: Stockholm
(59.3333°N, 18.0500°E)
Time: 00:36:33
(UTC+02:00)

ISS - Visible Passes

Search period start: 22 October 2019 00:00
Search period end: 31 October 2019 23:00
Orbit: 411 x 421 km, 51.6° (Epoch: 21 October)

Date Brightness Start Highest point End Pass type
(mag) Time Alt. Az. Time Alt. Az. Time Alt. Az.
26 Oct -0.6 06:52:33 10° SSE 06:53:35 11° SSE 06:54:36 10° SE visible
28 Oct -1.1 05:50:25 10° SSW 05:52:36 16° SSE 05:54:46 10° ESE visible
29 Oct -1.0 05:02:27 10° S 05:04:11 13° SSE 05:05:54 10° SE visible
30 Oct -0.9 04:15:01 10° SSE 04:15:48 11° SSE 04:16:34 10° SE visible
30 Oct -1.5 05:49:03 10° SW 05:51:38 20° S 05:54:13 10° ESE visible
31 Oct -1.5 05:01:13 12° SSW 05:03:10 18° SSE 05:05:35 10° ESE visible
